• In Deutschland
  • Länderverzeichnis
  • Für 7 Tage
  • Wassertemperatur
  • Satellitenkarten
  • Wetterkarte
  • Widgets
  • user-avatar
    Anmelden

    Stündliche Wetter Victoria

    Heute, 26 Juni, Montag

    Zeit Temperatur Niederschläge Wind Luftdruck Luftfeuchtigkeit
    00:00 +6°C° 0 mm 1 m/S 753 mmHg 99%
    01:00 +5°C° 0 mm 1 m/S 753 mmHg 99%
    02:00 +4°C° 0 mm 0 m/S 753 mmHg 99%
    03:00 +3°C° 0 mm 0 m/S 753 mmHg 99%
    04:00 +3°C° 0 mm 0 m/S 753 mmHg 99%
    05:00 +2°C° 0 mm 0 m/S 754 mmHg 99%
    06:00 +2°C° 0 mm 0 m/S 754 mmHg 99%
    07:00 +1°C° 0 mm 0 m/S 754 mmHg 99%
    08:00 +4°C° 0 mm 0 m/S 755 mmHg 94%
    09:00 +7°C° 0 mm 0 m/S 755 mmHg 89%
    10:00 +10°C° 0 mm 0 m/S 756 mmHg 81%
    11:00 +11°C° 0 mm 0 m/S 756 mmHg 72%
    12:00 +12°C° 0 mm 0 m/S 756 mmHg 64%
    13:00 +14°C° 0 mm 0 m/S 756 mmHg 55%
    14:00 +13°C° 0 mm 0 m/S 756 mmHg 58%
    15:00 +13°C° 0 mm 0 m/S 756 mmHg 60%
    16:00 +12°C° 0 mm 0 m/S 756 mmHg 63%
    17:00 +10°C° 0 mm 0 m/S 756 mmHg 69%
    18:00 +9°C° 0 mm 0 m/S 756 mmHg 76%
    19:00 +7°C° 0 mm 0 m/S 756 mmHg 83%
    20:00 +6°C° 0 mm 0 m/S 757 mmHg 84%
    21:00 +6°C° 0 mm 0 m/S 757 mmHg 86%
    22:00 +6°C° 0 mm 0 m/S 757 mmHg 88%
    23:00 +5°C° 0 mm 0 m/S 757 mmHg 88%

    Morgen, 27 Juni, Dienstag

    Zeit Temperatur Niederschläge Wind Luftdruck Luftfeuchtigkeit
    00:00 +6°C° 0 mm 1 m/S 757 mmHg 88%
    01:00 +6°C° 0 mm 1 m/S 757 mmHg 88%
    02:00 +5°C° 0 mm 1 m/S 757 mmHg 91%
    03:00 +3°C° 0 mm 0 m/S 757 mmHg 94%
    04:00 +2°C° 0 mm 0 m/S 757 mmHg 96%
    05:00 +2°C° 0 mm 0 m/S 757 mmHg 96%
    06:00 +2°C° 0 mm 0 m/S 757 mmHg 97%
    07:00 +3°C° 0 mm 1 m/S 757 mmHg 97%
    08:00 +5°C° 0 mm 1 m/S 757 mmHg 89%
    09:00 +7°C° 0 mm 1 m/S 757 mmHg 81%
    10:00 +9°C° 0 mm 1 m/S 758 mmHg 73%
    11:00 +10°C° 0 mm 1 m/S 757 mmHg 69%
    12:00 +11°C° 0 mm 1 m/S 757 mmHg 64%
    13:00 +12°C° 0 mm 1 m/S 756 mmHg 60%
    14:00 +12°C° 0 mm 1 m/S 756 mmHg 63%
    15:00 +11°C° 0 mm 0 m/S 756 mmHg 66%
    16:00 +10°C° 0 mm 0 m/S 756 mmHg 69%
    17:00 +9°C° 0 mm 0 m/S 756 mmHg 75%
    18:00 +7°C° 0 mm 0 m/S 756 mmHg 82%
    19:00 +7°C° 0 mm 1 m/S 756 mmHg 88%
    20:00 +6°C° 0 mm 1 m/S 756 mmHg 90%
    21:00 +6°C° 0 mm 1 m/S 756 mmHg 93%
    22:00 +5°C° 0 mm 1 m/S 757 mmHg 95%
    23:00 +5°C° 0 mm 1 m/S 756 mmHg 96%

    übermorgen, 28 Juni, Mittwoch

    Zeit Temperatur Niederschläge Wind Luftdruck Luftfeuchtigkeit
    00:00 +5°C° 0 mm 1 m/S 756 mmHg 97%
    01:00 +3°C° 0 mm 0 m/S 756 mmHg 98%
    02:00 +4°C° 0 mm 0 m/S 756 mmHg 98%
    03:00 +4°C° 0 mm 0 m/S 756 mmHg 98%
    04:00 +4°C° 0 mm 0 m/S 756 mmHg 98%
    05:00 +4°C° 0 mm 0 m/S 756 mmHg 98%
    06:00 +4°C° 0 mm 0 m/S 756 mmHg 98%
    07:00 +4°C° 0 mm 0 m/S 756 mmHg 99%
    08:00 +5°C° 0 mm 0 m/S 756 mmHg 91%
    09:00 +7°C° 0 mm 0 m/S 756 mmHg 84%
    10:00 +9°C° 0 mm 0 m/S 756 mmHg 76%
    11:00 +11°C° 0 mm 0 m/S 756 mmHg 70%
    12:00 +13°C° 0 mm 1 m/S 755 mmHg 64%
    13:00 +14°C° 0 mm 1 m/S 755 mmHg 58%
    14:00 +14°C° 0 mm 1 m/S 754 mmHg 60%
    15:00 +14°C° 0 mm 1 m/S 754 mmHg 61%
    16:00 +13°C° 0 mm 0 m/S 754 mmHg 63%
    17:00 +11°C° 0 mm 0 m/S 754 mmHg 71%
    18:00 +8°C° 0 mm 0 m/S 754 mmHg 80%
    19:00 +6°C° 0 mm 0 m/S 755 mmHg 88%
    20:00 +6°C° 0 mm 0 m/S 755 mmHg 88%
    21:00 +8°C° 0 mm 1 m/S 755 mmHg 87%
    22:00 +8°C° 0 mm 1 m/S 755 mmHg 86%
    23:00 +7°C° 0 mm 1 m/S 755 mmHg 90%

    29 Juni, Donnerstag

    Zeit Temperatur Niederschläge Wind Luftdruck Luftfeuchtigkeit
    00:00 +6°C° 0 mm 1 m/S 755 mmHg 93%
    01:00 +5°C° 0 mm 1 m/S 755 mmHg 97%
    02:00 +5°C° 0 mm 1 m/S 754 mmHg 96%
    03:00 +6°C° 0 mm 1 m/S 754 mmHg 95%
    04:00 +6°C° 0 mm 1 m/S 754 mmHg 95%
    05:00 +6°C° 0 mm 1 m/S 754 mmHg 95%
    06:00 +6°C° 0 mm 1 m/S 755 mmHg 96%
    07:00 +6°C° 0 mm 1 m/S 755 mmHg 97%
    08:00 +7°C° 0 mm 1 m/S 755 mmHg 92%
    09:00 +8°C° 0 mm 1 m/S 755 mmHg 87%
    10:00 +9°C° 0 mm 1 m/S 756 mmHg 83%
    11:00 +9°C° 0 mm 2 m/S 755 mmHg 74%
    12:00 +12°C° 0 mm 2 m/S 755 mmHg 65%
    13:00 +12°C° 0 mm 3 m/S 754 mmHg 55%
    14:00 +12°C° 0,1 mm 3 m/S 754 mmHg 59%
    15:00 +12°C° 0,1 mm 3 m/S 754 mmHg 62%
    16:00 +12°C° 0,1 mm 2 m/S 755 mmHg 66%
    17:00 +10°C° 0,1 mm 2 m/S 755 mmHg 72%
    18:00 +9°C° 0,1 mm 2 m/S 756 mmHg 78%
    19:00 +8°C° 0,1 mm 2 m/S 756 mmHg 85%
    20:00 +7°C° 0 mm 2 m/S 757 mmHg 86%
    21:00 +6°C° 0 mm 2 m/S 757 mmHg 88%
    22:00 +6°C° 0 mm 1 m/S 758 mmHg 90%
    23:00 +5°C° 0 mm 1 m/S 758 mmHg 92%

    30 Juni, Freitag

    Zeit Temperatur Niederschläge Wind Luftdruck Luftfeuchtigkeit
    00:00 +5°C° 0 mm 1 m/S 758 mmHg 94%
    01:00 +4°C° 0 mm 1 m/S 759 mmHg 97%
    02:00 +4°C° 0 mm 1 m/S 759 mmHg 97%
    03:00 +3°C° 0 mm 1 m/S 759 mmHg 97%
    04:00 +3°C° 0 mm 1 m/S 759 mmHg 97%
    05:00 +3°C° 0 mm 1 m/S 760 mmHg 97%
    06:00 +3°C° 0 mm 1 m/S 760 mmHg 97%
    07:00 +2°C° 0 mm 1 m/S 761 mmHg 98%
    08:00 +4°C° 0 mm 1 m/S 761 mmHg 90%
    09:00 +6°C° 0 mm 1 m/S 761 mmHg 83%
    10:00 +8°C° 0 mm 1 m/S 762 mmHg 75%
    11:00 +9°C° 0 mm 1 m/S 761 mmHg 68%
    12:00 +10°C° 0 mm 1 m/S 761 mmHg 61%
    13:00 +12°C° 0 mm 2 m/S 761 mmHg 54%
    14:00 +12°C° 0 mm 1 m/S 761 mmHg 54%
    15:00 +12°C° 0 mm 1 m/S 761 mmHg 55%
    16:00 +12°C° 0 mm 1 m/S 760 mmHg 55%
    17:00 +9°C° 0 mm 1 m/S 761 mmHg 65%
    18:00 +7°C° 0 mm 1 m/S 761 mmHg 76%
    19:00 +5°C° 0 mm 1 m/S 761 mmHg 86%
    20:00 +5°C° 0 mm 1 m/S 762 mmHg 88%
    21:00 +4°C° 0 mm 1 m/S 762 mmHg 90%
    22:00 +4°C° 0 mm 1 m/S 762 mmHg 92%
    23:00 +3°C° 0 mm 1 m/S 762 mmHg 94%

    1 Juli, Samstag

    Zeit Temperatur Niederschläge Wind Luftdruck Luftfeuchtigkeit
    00:00 +3°C° 0 mm 1 m/S 762 mmHg 95%
    01:00 +2°C° 0 mm 1 m/S 762 mmHg 97%
    02:00 +2°C° 0 mm 1 m/S 762 mmHg 97%
    03:00 +2°C° 0 mm 1 m/S 762 mmHg 97%
    04:00 +1°C° 0 mm 1 m/S 762 mmHg 97%
    05:00 +1°C° 0 mm 1 m/S 762 mmHg 97%
    06:00 +1°C° 0 mm 1 m/S 762 mmHg 97%
    07:00 +1°C° 0 mm 1 m/S 762 mmHg 97%
    08:00 +3°C° 0 mm 1 m/S 762 mmHg 87%
    09:00 +5°C° 0 mm 1 m/S 762 mmHg 77%
    10:00 +7°C° 0 mm 1 m/S 762 mmHg 68%
    11:00 +8°C° 0 mm 1 m/S 762 mmHg 61%
    12:00 +10°C° 0 mm 1 m/S 761 mmHg 54%
    13:00 +12°C° 0 mm 1 m/S 760 mmHg 47%
    14:00 +12°C° 0 mm 1 m/S 760 mmHg 48%
    15:00 +12°C° 0 mm 1 m/S 760 mmHg 49%
    16:00 +12°C° 0 mm 1 m/S 759 mmHg 50%
    17:00 +10°C° 0 mm 1 m/S 759 mmHg 58%
    18:00 +8°C° 0 mm 1 m/S 760 mmHg 65%
    19:00 +5°C° 0 mm 1 m/S 760 mmHg 73%
    20:00 +5°C° 0 mm 1 m/S 760 mmHg 74%
    21:00 +5°C° 0 mm 1 m/S 760 mmHg 76%
    22:00 +4°C° 0 mm 1 m/S 759 mmHg 77%
    23:00 +4°C° 0 mm 1 m/S 759 mmHg 78%
    Mehr zeigen